| time (UTC) | temp C | wind direction | speed KPH | gust KPH | rain 1hr cm | rain 24hr cm | rain mn cm | humidity % | barometer mb |
| 20260504045007 | 8 | 289 | 0.0 | 3.2 | 0.00 | 0.00 | 0.00 | 58 | 1012.9 |
| 20260504044526 | 8 | 287 | 0.0 | 3.2 | 0.00 | 0.00 | 0.00 | 58 | 1013.0 |
| 20260504044010 | 8 | 279 | 0.0 | 3.2 | 0.00 | 0.00 | 0.00 | 58 | 1013.0 |
| 20260504043507 | 8 | 296 | 0.0 | 3.2 | 0.00 | 0.00 | 0.00 | 57 | 1013.0 |
| 20260504043033 | 8 | 286 | 0.0 | 3.2 | 0.00 | 0.00 | 0.00 | 57 | 1013.0 |
| 20260504042509 | 8 | 275 | 0.0 | 3.2 | 0.00 | 0.00 | 0.00 | 57 | 1013.0 |
| 20260504042008 | 8 | 294 | 0.0 | 3.2 | 0.00 | 0.00 | 0.00 | 56 | 1013.0 |
| 20260504041515 | 8 | 292 | 0.0 | 3.2 | 0.00 | 0.00 | 0.00 | 54 | 1013.0 |
| 20260504041003 | 8 | 290 | 0.0 | 3.2 | 0.00 | 0.00 | 0.00 | 55 | 1013.0 |
| 20260504040509 | 8 | 294 | 0.0 | 3.2 | 0.00 | 0.00 | 0.00 | 54 | 1013.0 |
| 20260504040024 | 8 | 288 | 0.0 | 0.0 | 0.00 | 0.00 | 0.00 | 53 | 1013.0 |
| 20260504035506 | 8 | 289 | 0.0 | 0.0 | 0.00 | 0.00 | 0.00 | 54 | 1013.0 |
| 20260504035007 | 8 | 289 | 0.0 | 0.0 | 0.00 | 0.00 | 0.00 | 54 | 1013.0 |
| 20260504034519 | 8 | 288 | 0.0 | 0.0 | 0.00 | 0.00 | 0.00 | 53 | 1013.0 |
| 20260504034013 | 9 | 288 | 0.0 | 0.0 | 0.00 | 0.00 | 0.00 | 52 | 1012.9 |
| 20260504033506 | 9 | 289 | 0.0 | 0.0 | 0.00 | 0.00 | 0.00 | 51 | 1013.0 |
| 20260504033028 | 9 | 289 | 0.0 | 0.0 | 0.00 | 0.00 | 0.00 | 53 | 1012.9 |
| 20260504032510 | 9 | 289 | 0.0 | 0.0 | 0.00 | 0.00 | 0.00 | 52 | 1012.9 |
| 20260504032013 | 9 | 288 | 0.0 | 0.0 | 0.00 | 0.00 | 0.00 | 52 | 1013.0 |
| 20260504031528 | 9 | 289 | 0.0 | 0.0 | 0.00 | 0.00 | 0.00 | 52 | 1012.9 |
| 20260504031013 | 9 | 288 | 0.0 | 3.2 | 0.00 | 0.00 | 0.00 | 52 | 1013.0 |
| 20260504030509 | 9 | 289 | 0.0 | 3.2 | 0.00 | 0.00 | 0.00 | 51 | 1013.1 |
| 20260504030017 | 10 | 289 | 0.0 | 3.2 | 0.00 | 0.00 | 0.00 | 51 | 1013.1 |
| 20260504025509 | 9 | 289 | 0.0 | 0.0 | 0.00 | 0.00 | 0.00 | 52 | 1013.1 |
| 20260504025005 | 9 | 289 | 0.0 | 0.0 | 0.00 | 0.00 | 0.00 | 52 | 1013.2 |
| 20260504024520 | 10 | 288 | 0.0 | 0.0 | 0.00 | 0.00 | 0.00 | 51 | 1013.2 |
| 20260504024009 | 10 | 289 | 0.0 | 0.0 | 0.00 | 0.00 | 0.00 | 51 | 1013.3 |
| 20260504023506 | 10 | 288 | 0.0 | 0.0 | 0.00 | 0.00 | 0.00 | 50 | 1013.3 |
| 20260504023027 | 10 | 289 | 0.0 | 3.2 | 0.00 | 0.00 | 0.00 | 50 | 1013.3 |
| 20260504022508 | 10 | 288 | 0.0 | 3.2 | 0.00 | 0.00 | 0.00 | 49 | 1013.3 |
| 20260504022004 | 10 | 289 | 0.0 | 3.2 | 0.00 | 0.00 | 0.00 | 49 | 1013.3 |
| 20260504021511 | 10 | 289 | 0.0 | 3.2 | 0.00 | 0.00 | 0.00 | 48 | 1013.4 |
| 20260504021004 | 10 | 288 | 0.0 | 3.2 | 0.00 | 0.00 | 0.00 | 49 | 1013.4 |
| 20260504020505 | 10 | 287 | 0.0 | 3.2 | 0.00 | 0.00 | 0.00 | 49 | 1013.4 |
| 20260504020013 | 10 | 270 | 0.0 | 3.2 | 0.00 | 0.00 | 0.00 | 49 | 1013.4 |
| 20260504015506 | 10 | 277 | 0.0 | 3.2 | 0.00 | 0.00 | 0.00 | 48 | 1013.4 |
| 20260504015009 | 10 | 279 | 0.0 | 3.2 | 0.00 | 0.00 | 0.00 | 48 | 1013.4 |
| 20260504014517 | 10 | 281 | 0.0 | 3.2 | 0.00 | 0.00 | 0.00 | 48 | 1013.4 |
| 20260504014009 | 11 | 280 | 0.0 | 3.2 | 0.00 | 0.00 | 0.00 | 47 | 1013.4 |
| 20260504013510 | 10 | 274 | 0.0 | 0.0 | 0.00 | 0.00 | 0.00 | 48 | 1013.3 |
| 20260504013022 | 11 | 274 | 0.0 | 1.6 | 0.00 | 0.00 | 0.00 | 47 | 1013.3 |
| 20260504012506 | 11 | 265 | 0.0 | 3.2 | 0.00 | 0.00 | 0.00 | 46 | 1013.3 |
| 20260504012007 | 11 | 265 | 0.0 | 3.2 | 0.00 | 0.00 | 0.00 | 45 | 1013.3 |
| 20260504011526 | 11 | 263 | 0.0 | 3.2 | 0.00 | 0.00 | 0.00 | 46 | 1013.2 |
| 20260504011012 | 11 | 263 | 0.0 | 3.2 | 0.00 | 0.00 | 0.00 | 45 | 1013.2 |
| 20260504010504 | 11 | 275 | 0.0 | 3.2 | 0.00 | 0.00 | 0.00 | 45 | 1013.1 |
| 20260504010009 | 11 | 275 | 0.0 | 3.2 | 0.00 | 0.00 | 0.00 | 45 | 1013.1 |
| 20260504005505 | 11 | 275 | 0.0 | 3.2 | 0.00 | 0.00 | 0.00 | 45 | 1013.1 |
| 20260504005011 | 11 | 275 | 0.0 | 3.2 | 0.00 | 0.00 | 0.00 | 45 | 1013.1 |
| 20260504004514 | 11 | 275 | 0.0 | 3.2 | 0.00 | 0.00 | 0.00 | 45 | 1013.1 |
| 20260504004010 | 11 | 269 | 0.0 | 3.2 | 0.00 | 0.00 | 0.00 | 44 | 1013.1 |
| 20260504003509 | 11 | 269 | 0.0 | 3.2 | 0.00 | 0.00 | 0.00 | 44 | 1013.1 |
| 20260504003023 | 12 | 233 | 0.0 | 3.2 | 0.00 | 0.00 | 0.00 | 44 | 1013.2 |
| 20260504002509 | 12 | 289 | 0.0 | 3.2 | 0.00 | 0.00 | 0.00 | 44 | 1013.1 |
| 20260504002011 | 12 | 289 | 0.0 | 3.2 | 0.00 | 0.00 | 0.00 | 42 | 1013.1 |
| 20260504001523 | 12 | 292 | 0.0 | 3.2 | 0.00 | 0.00 | 0.00 | 42 | 1013.1 |
| 20260504001007 | 12 | 283 | 0.0 | 3.2 | 0.00 | 0.00 | 0.00 | 41 | 1013.0 |
| 20260504000507 | 12 | 262 | 0.0 | 4.8 | 0.00 | 0.00 | 0.00 | 41 | 1013.0 |
| 20260504000027 | 12 | 276 | 0.0 | 4.8 | 0.00 | 0.00 | 0.00 | 40 | 1013.0 |
| 20260503235509 | 12 | 286 | 0.0 | 3.2 | 0.00 | 0.00 | 0.00 | 40 | 1013.0 |
| 20260503235011 | 12 | 250 | 0.0 | 3.2 | 0.00 | 0.00 | 0.00 | 40 | 1013.0 |
| 20260503234529 | 13 | 314 | 0.0 | 4.8 | 0.00 | 0.00 | 0.00 | 39 | 1013.0 |
| 20260503234009 | 13 | 302 | 1.6 | 4.8 | 0.00 | 0.00 | 0.00 | 38 | 1013.0 |
| 20260503233508 | 13 | 334 | 1.6 | 8.0 | 0.00 | 0.00 | 0.00 | 38 | 1013.1 |
| 20260503233028 | 13 | 297 | 1.6 | 11.3 | 0.00 | 0.00 | 0.00 | 38 | 1013.0 |
| 20260503232507 | 13 | 290 | 1.6 | 11.3 | 0.00 | 0.00 | 0.00 | 38 | 1013.1 |
| 20260503232011 | 13 | 284 | 0.0 | 6.4 | 0.00 | 0.00 | 0.00 | 39 | 1013.2 |
| 20260503231524 | 13 | 281 | 1.6 | 6.4 | 0.00 | 0.00 | 0.00 | 38 | 1013.2 |
| 20260503231007 | 13 | 269 | 1.6 | 11.3 | 0.00 | 0.00 | 0.00 | 39 | 1013.2 |
| 20260503230507 | 13 | 304 | 1.6 | 11.3 | 0.00 | 0.00 | 0.00 | 37 | 1013.1 |
| 20260503230022 | 13 | 288 | 0.0 | 6.4 | 0.00 | 0.00 | 0.00 | 38 | 1013.1 |
| 20260503225510 | 13 | 267 | 0.0 | 11.3 | 0.00 | 0.00 | 0.00 | 37 | 1013.1 |
| 20260503225011 | 13 | 149 | 1.6 | 12.9 | 0.00 | 0.00 | 0.00 | 37 | 1013.0 |
| 20260503224527 | 13 | 279 | 1.6 | 12.9 | 0.00 | 0.00 | 0.00 | 37 | 1013.0 |
| 20260503224009 | 13 | 310 | 1.6 | 11.3 | 0.00 | 0.00 | 0.00 | 38 | 1013.1 |
| 20260503223512 | 14 | 247 | 3.2 | 11.3 | 0.00 | 0.00 | 0.00 | 37 | 1013.2 |
| 20260503223028 | 14 | 71 | 1.6 | 11.3 | 0.00 | 0.00 | 0.00 | 37 | 1013.2 |
| 20260503222508 | 14 | 254 | 3.2 | 14.5 | 0.00 | 0.00 | 0.00 | 35 | 1013.3 |
| 20260503222010 | 14 | 146 | 3.2 | 14.5 | 0.00 | 0.00 | 0.00 | 36 | 1013.3 |
| 20260503221523 | 14 | 266 | 1.6 | 14.5 | 0.00 | 0.00 | 0.00 | 36 | 1013.4 |
| 20260503221007 | 14 | 120 | 3.2 | 6.4 | 0.00 | 0.00 | 0.00 | 36 | 1013.4 |
| 20260503220508 | 14 | 299 | 1.6 | 12.9 | 0.00 | 0.00 | 0.00 | 37 | 1013.4 |
| 20260503220027 | 14 | 257 | 3.2 | 12.9 | 0.00 | 0.00 | 0.00 | 36 | 1013.4 |
| 20260503215511 | 15 | 269 | 1.6 | 12.9 | 0.00 | 0.00 | 0.00 | 36 | 1013.4 |
| 20260503215009 | 15 | 278 | 1.6 | 12.9 | 0.00 | 0.00 | 0.00 | 36 | 1013.4 |
| 20260503214528 | 14 | 149 | 3.2 | 12.9 | 0.00 | 0.00 | 0.00 | 37 | 1013.4 |
| 20260503214007 | 14 | 295 | 1.6 | 11.3 | 0.00 | 0.00 | 0.00 | 36 | 1013.3 |
| 20260503213508 | 13 | 313 | 3.2 | 11.3 | 0.00 | 0.00 | 0.00 | 38 | 1013.3 |
| 20260503213030 | 13 | 243 | 3.2 | 9.7 | 0.00 | 0.00 | 0.00 | 37 | 1013.2 |
| 20260503212509 | 13 | 160 | 1.6 | 9.7 | 0.00 | 0.00 | 0.00 | 39 | 1013.3 |
| 20260503212009 | 14 | 282 | 1.6 | 9.7 | 0.00 | 0.00 | 0.00 | 37 | 1013.3 |
| 20260503211530 | 14 | 150 | 3.2 | 9.7 | 0.00 | 0.00 | 0.00 | 36 | 1013.3 |
| 20260503211012 | 15 | 306 | 4.8 | 14.5 | 0.00 | 0.00 | 0.00 | 35 | 1013.2 |
| 20260503210510 | 15 | 55 | 4.8 | 14.5 | 0.00 | 0.00 | 0.00 | 35 | 1013.2 |
| 20260503210028 | 15 | 325 | 3.2 | 8.0 | 0.00 | 0.00 | 0.00 | 36 | 1013.3 |
| 20260503205507 | 15 | 275 | 3.2 | 12.9 | 0.00 | 0.00 | 0.00 | 37 | 1013.4 |
| 20260503205007 | 14 | 299 | 1.6 | 14.5 | 0.00 | 0.00 | 0.00 | 37 | 1013.4 |
| 20260503204515 | 14 | 259 | 3.2 | 14.5 | 0.00 | 0.00 | 0.00 | 37 | 1013.5 |
| 20260503204005 | 14 | 300 | 3.2 | 11.3 | 0.00 | 0.00 | 0.00 | 36 | 1013.5 |
| 20260503203505 | 15 | 294 | 3.2 | 11.3 | 0.00 | 0.00 | 0.00 | 36 | 1013.5 |
| 20260503203013 | 14 | 277 | 3.2 | 9.7 | 0.00 | 0.00 | 0.00 | 36 | 1013.6 |
| 20260503202505 | 14 | 223 | 1.6 | 9.7 | 0.00 | 0.00 | 0.00 | 37 | 1013.7 |
| 20260503202010 | 15 | 211 | 3.2 | 9.7 | 0.00 | 0.00 | 0.00 | 36 | 1013.8 |
| 20260503201518 | 14 | 202 | 3.2 | 9.7 | 0.00 | 0.00 | 0.00 | 36 | 1013.7 |
| 20260503201005 | 14 | 201 | 1.6 | 16.1 | 0.00 | 0.00 | 0.00 | 37 | 1013.8 |
| 20260503200509 | 14 | 263 | 3.2 | 16.1 | 0.00 | 0.00 | 0.00 | 36 | 1013.8 |
| 20260503200021 | 14 | 240 | 3.2 | 9.7 | 0.00 | 0.00 | 0.00 | 37 | 1013.7 |
| 20260503195510 | 14 | 292 | 1.6 | 9.7 | 0.00 | 0.00 | 0.00 | 40 | 1013.8 |
| 20260503195007 | 14 | 249 | 3.2 | 11.3 | 0.00 | 0.00 | 0.00 | 37 | 1014.0 |
| 20260503194526 | 15 | 290 | 3.2 | 11.3 | 0.00 | 0.00 | 0.00 | 36 | 1014.0 |
| 20260503194011 | 14 | 331 | 3.2 | 9.7 | 0.00 | 0.00 | 0.00 | 39 | 1014.0 |
| 20260503193504 | 15 | 319 | 3.2 | 9.7 | 0.00 | 0.00 | 0.00 | 36 | 1014.1 |
| 20260503193008 | 15 | 277 | 3.2 | 9.7 | 0.00 | 0.00 | 0.00 | 38 | 1014.1 |
| 20260503192504 | 15 | 290 | 3.2 | 9.7 | 0.00 | 0.00 | 0.00 | 38 | 1014.3 |
| 20260503192007 | 14 | 288 | 1.6 | 8.0 | 0.00 | 0.00 | 0.00 | 38 | 1014.3 |
| 20260503191528 | 14 | 201 | 3.2 | 8.0 | 0.00 | 0.00 | 0.00 | 35 | 1014.4 |
| 20260503191005 | 13 | 217 | 1.6 | 12.9 | 0.00 | 0.00 | 0.00 | 36 | 1014.6 |
| 20260503190504 | 13 | 242 | 1.6 | 12.9 | 0.00 | 0.00 | 0.00 | 37 | 1014.7 |
| 20260503190017 | 14 | 271 | 3.2 | 11.3 | 0.00 | 0.00 | 0.00 | 38 | 1014.9 |
| 20260503185510 | 15 | 287 | 3.2 | 11.3 | 0.00 | 0.00 | 0.00 | 37 | 1014.9 |
| 20260503185006 | 14 | 290 | 3.2 | 8.0 | 0.00 | 0.00 | 0.00 | 40 | 1015.0 |
| 20260503184525 | 15 | 96 | 1.6 | 6.4 | 0.00 | 0.00 | 0.00 | 37 | 1015.0 |
| 20260503184010 | 14 | 275 | 1.6 | 9.7 | 0.00 | 0.00 | 0.00 | 37 | 1015.1 |
| 20260503183511 | 15 | 290 | 1.6 | 12.9 | 0.00 | 0.00 | 0.00 | 35 | 1015.1 |
| 20260503183026 | 14 | 105 | 1.6 | 12.9 | 0.00 | 0.00 | 0.00 | 38 | 1015.2 |
| 20260503182505 | 13 | 300 | 3.2 | 12.9 | 0.00 | 0.00 | 0.00 | 40 | 1015.2 |
| 20260503182005 | 14 | 211 | 4.8 | 12.9 | 0.00 | 0.00 | 0.00 | 37 | 1015.3 |
| 20260503181513 | 15 | 292 | 3.2 | 12.9 | 0.00 | 0.00 | 0.00 | 38 | 1015.2 |
| 20260503181008 | 14 | 196 | 1.6 | 8.0 | 0.00 | 0.00 | 0.00 | 37 | 1015.3 |
| 20260503180512 | 13 | 134 | 3.2 | 12.9 | 0.00 | 0.00 | 0.00 | 40 | 1015.4 |
| 20260503180021 | 13 | 167 | 4.8 | 12.9 | 0.00 | 0.00 | 0.00 | 39 | 1015.4 |
| 20260503175507 | 13 | 311 | 1.6 | 14.5 | 0.00 | 0.00 | 0.00 | 37 | 1015.6 |
| 20260503175006 | 13 | 5 | 3.2 | 14.5 | 0.00 | 0.00 | 0.00 | 39 | 1015.6 |
| 20260503174523 | 13 | 58 | 1.6 | 9.7 | 0.00 | 0.00 | 0.00 | 40 | 1015.6 |
| 20260503174010 | 13 | 308 | 1.6 | 9.7 | 0.00 | 0.00 | 0.00 | 40 | 1015.6 |
| 20260503173512 | 13 | 331 | 3.2 | 9.7 | 0.00 | 0.00 | 0.00 | 37 | 1015.6 |
| 20260503173025 | 13 | 300 | 1.6 | 9.7 | 0.00 | 0.00 | 0.00 | 38 | 1015.7 |
| 20260503172510 | 13 | 200 | 3.2 | 9.7 | 0.00 | 0.00 | 0.00 | 39 | 1015.8 |
| 20260503172007 | 13 | 201 | 1.6 | 9.7 | 0.00 | 0.00 | 0.00 | 41 | 1015.8 |
| 20260503171529 | 13 | 316 | 3.2 | 14.5 | 0.00 | 0.00 | 0.00 | 38 | 1015.9 |
| 20260503171004 | 13 | 323 | 1.6 | 14.5 | 0.00 | 0.00 | 0.00 | 37 | 1015.9 |
| 20260503170504 | 13 | 15 | 3.2 | 14.5 | 0.00 | 0.00 | 0.00 | 39 | 1015.9 |
| 20260503151012 | 11 | 165 | 1.6 | 9.7 | 0.00 | 0.00 | 0.00 | 42 | 1016.8 |
| 20260503150511 | 11 | 244 | 1.6 | 9.7 | 0.00 | 0.00 | 0.00 | 38 | 1016.8 |
| 20260503131009 | 7 | 84 | 1.6 | 6.4 | 0.00 | 0.00 | 0.00 | 61 | 1017.3 |
| 20260503130510 | 7 | 288 | 1.6 | 6.4 | 0.00 | 0.00 | 0.00 | 63 | 1017.4 |
| 20260503110508 | 2 | 288 | 0.0 | 3.2 | 0.00 | 0.03 | 0.00 | 84 | 1016.5 |
| 20260503090508 | 1 | 256 | 0.0 | 0.0 | 0.00 | 0.03 | 0.00 | 85 | 1015.7 |
| 20260503081526 | 1 | 265 | 0.0 | 0.0 | 0.00 | 0.03 | 0.00 | 83 | 1015.7 |
| 20260503081004 | 1 | 265 | 0.0 | 0.0 | 0.00 | 0.03 | 0.00 | 83 | 1015.6 |
| 20260503080508 | 1 | 268 | 0.0 | 0.0 | 0.00 | 0.03 | 0.00 | 83 | 1015.6 |
| 20260503072508 | 1 | 268 | 0.0 | 0.0 | 0.00 | 0.03 | 0.00 | 81 | 1015.5 |
| 20260503072013 | 1 | 268 | 0.0 | 0.0 | 0.00 | 0.03 | 0.00 | 81 | 1015.4 |
| 20260503071525 | 1 | 271 | 0.0 | 0.0 | 0.00 | 0.03 | 0.00 | 82 | 1015.4 |
| 20260503071005 | 1 | 261 | 0.0 | 0.0 | 0.00 | 0.03 | 0.00 | 82 | 1015.4 |
| 20260503070506 | 1 | 261 | 0.0 | 0.0 | 0.00 | 0.03 | 0.00 | 82 | 1015.4 |
| 20260503055006 | 2 | 241 | 0.0 | 0.0 | 0.00 | 0.03 | 0.00 | 80 | 1015.5 |
| 20260503054513 | 2 | 240 | 0.0 | 0.0 | 0.00 | 0.03 | 0.00 | 80 | 1015.6 |
| 20260503054007 | 2 | 244 | 0.0 | 0.0 | 0.00 | 0.03 | 0.00 | 80 | 1015.6 |
| 20260503053507 | 2 | 244 | 0.0 | 0.0 | 0.00 | 0.03 | 0.00 | 80 | 1015.6 |
| 20260503053023 | 2 | 254 | 0.0 | 0.0 | 0.00 | 0.03 | 0.00 | 81 | 1015.7 |
| 20260503052509 | 2 | 255 | 0.0 | 0.0 | 0.00 | 0.03 | 0.00 | 82 | 1015.7 |
| 20260503052006 | 2 | 283 | 0.0 | 0.0 | 0.00 | 0.03 | 0.00 | 82 | 1015.6 |
| 20260503051522 | 2 | 283 | 0.0 | 0.0 | 0.00 | 0.03 | 0.00 | 81 | 1015.7 |
| 20260503051006 | 1 | 283 | 0.0 | 0.0 | 0.00 | 0.03 | 0.00 | 81 | 1015.7 |
| 20260503050507 | 2 | 283 | 0.0 | 0.0 | 0.00 | 0.03 | 0.00 | 81 | 1015.7 |
| 20260503050029 | 2 | 283 | 0.0 | 0.0 | 0.00 | 0.03 | 0.00 | 80 | 1015.8 |
| 20260503045511 | 2 | 283 | 0.0 | 0.0 | 0.00 | 0.03 | 0.00 | 81 | 1015.8 |